Location: Bergfeld
(52.0500°N, 11.7833°E)
Time: 18:41:23
(UTC+00:00)

STARLINK-1195 - Pass Details

Date: 17 February 2020
Orbit: 374 x 385 km, 53.0° (Epoch: 28 March)

Event Time Altitude Azimuth Distance (km) Brightness Sun altitude
Exits shadow 03:35:58 21° 78° (ENE) 932 5.5 -26.5°
Drops below altitude 10° 03:37:08 10° 77° (ENE) 1,404 6.7 -26.3°
Enters shadow 04:31:55 -71° 266° (W) 12,433 10.5 -18.0°
Maximum altitude 05:09:56 73° 5° (N) 404 2.9 -12.2°
